Location: Santa Cristina
(46.5667°N, 11.7167°E)
Time: 05:57:52
(UTC+00:00)

Cosmos 1538 Rocket - Pass Details

Date: 21 April 2021
Orbit: 751 x 792 km, 74.0° (Epoch: 15 May)

Event Time Altitude Azimuth Distance (km) Brightness Sun altitude
Rises 00:10:26 0° 339° (NNW) 3,301 8.0 -30.1°
Reaches altitude 10° 00:12:51 10° 342° (NNW) 2,369 7.2 -30.0°
Enters shadow 00:17:43 66° 25° (NNE) 865 4.3 -29.7°
